Location: Maccacari
(45.1333°N, 11.1333°E)
Time: 14:26:20
(UTC+00:00)

Courier 1B Rocket - Visible Passes

Search period start: 25 January 2021 00:00
Search period end: 04 February 2021 00:00
Orbit: 920 x 1202 km, 28.2° (Epoch: 24 January)

Date Brightness Start Highest point End Pass type
(mag) Time Alt. Az. Time Alt. Az. Time Alt. Az.
25 Jan 7.6 04:50:12 10° SSE 04:51:17 10° SSE 04:52:23 10° SSE visible
26 Jan 7.3 05:38:50 10° SSW 05:42:44 16° SSE 05:46:45 10° SE visible
27 Jan 7.3 04:39:12 10° S 04:42:03 13° SSE 04:44:58 10° SE visible
28 Jan 7.2 05:29:27 10° SSW 05:33:34 17° S 05:37:51 10° SE visible
29 Jan 7.1 04:29:22 10° SSW 04:32:53 15° SSE 04:36:29 10° SE visible
30 Jan 7.1 03:31:47 12° SSE 03:32:15 12° SSE 03:34:44 10° SE visible
30 Jan 7.1 05:20:19 10° SW 05:24:27 18° S 05:28:43 10° SE visible
31 Jan 6.9 04:21:01 13° SSW 04:23:45 16° S 04:27:39 10° SE visible
01 Feb 7.0 03:23:51 14° SSE 03:23:51 14° SSE 03:26:24 10° SE visible
01 Feb 7.0 05:11:25 10° SW 05:15:21 17° S 05:19:22 10° SE visible
02 Feb 6.7 04:13:01 15° SSW 04:14:39 17° S 04:18:35 10° SE visible
02 Feb 7.1 06:03:56 10° SW 06:06:55 13° SSW 06:09:59 10° SSE visible
03 Feb 7.1 03:15:47 14° SSE 03:15:47 14° SSE 03:17:39 10° SE visible
03 Feb 6.9 05:02:47 10° SW 05:06:15 15° S 05:09:46 10° SSE visible
